Time,TemperatureF,DewpointF,PressureIn,WindDirection,WindDirectionDegrees,WindSpeedMPH,WindSpeedGustMPH,Humidity,HourlyPrecipIn,Conditions,Clouds,dailyrainin,SoftwareType,DateUTC
2013-01-22 00:07:00,5.8,1.0,30.06,NNW,347,2.0,3.0,79,0.00,,,0.00,weatherlink.com 1.10,2013-01-22 09:07:00,
2013-01-22 00:22:00,6.1,1.0,30.06,NNW,337,0.0,3.0,79,0.00,,,0.00,weatherlink.com 1.10,2013-01-22 09:22:00,
2013-01-22 00:37:00,6.1,1.0,30.06,NNW,339,2.0,3.0,78,0.00,,,0.00,weatherlink.com 1.10,2013-01-22 09:37:00,
2013-01-22 00:53:00,6.0,1.0,30.05,NNE,22,1.0,3.0,79,0.00,,,0.00,weatherlink.com 1.10,2013-01-22 09:53:00,
2013-01-22 01:07:00,6.2,1.0,30.05,NNW,337,1.0,3.0,78,0.00,,,0.00,weatherlink.com 1.10,2013-01-22 10:07:00,
2013-01-22 01:22:00,6.2,1.0,30.04,NE,51,1.0,4.0,79,0.00,,,0.00,weatherlink.com 1.10,2013-01-22 10:22:00,
2013-01-22 01:37:00,6.7,1.0,30.04,NNW,343,3.0,5.0,78,0.00,,,0.00,weatherlink.com 1.10,2013-01-22 10:37:00,
2013-01-22 01:52:00,6.7,1.0,30.04,NE,46,1.0,4.0,77,0.00,,,0.00,weatherlink.com 1.10,2013-01-22 10:52:00,
2013-01-22 02:07:00,6.9,1.0,30.03,NNW,339,2.0,3.0,77,0.00,,,0.00,weatherlink.com 1.10,2013-01-22 11:07:00,
2013-01-22 02:22:00,6.8,1.0,30.03,North,8,2.0,4.0,77,0.00,,,0.00,weatherlink.com 1.10,2013-01-22 11:22:00,
2013-01-22 02:37:00,6.7,1.0,30.02,NNW,338,0.0,1.0,78,0.00,,,0.00,weatherlink.com 1.10,2013-01-22 11:37:00,
2013-01-22 02:52:00,6.6,1.0,30.01,NW,309,0.0,2.0,79,0.00,,,0.00,weatherlink.com 1.10,2013-01-22 11:52:00,
2013-01-22 03:07:00,6.7,1.0,30.01,NE,35,0.0,3.0,78,0.00,,,0.00,weatherlink.com 1.10,2013-01-22 12:07:00,
2013-01-22 03:22:00,6.5,1.0,30.01,East,79,0.0,3.0,78,0.00,,,0.00,weatherlink.com 1.10,2013-01-22 12:22:00,
2013-01-22 03:38:00,6.5,1.0,30.01,ENE,65,2.0,3.0,77,0.00,,,0.00,weatherlink.com 1.10,2013-01-22 12:38:00,
2013-01-22 03:52:00,7.6,1.0,30.00,NNE,20,0.0,3.0,75,0.00,,,0.00,weatherlink.com 1.10,2013-01-22 12:52:00,
2013-01-22 04:08:00,7.7,1.0,30.00,West,271,3.0,5.0,75,0.00,,,0.00,weatherlink.com 1.10,2013-01-22 13:08:00,
2013-01-22 04:23:00,8.0,1.0,30.00,ENE,76,4.0,5.0,74,0.00,,,0.00,weatherlink.com 1.10,2013-01-22 13:23:00,
2013-01-22 04:38:00,8.0,1.0,29.99,ENE,62,1.0,5.0,73,0.00,,,0.00,weatherlink.com 1.10,2013-01-22 13:38:00,
2013-01-22 04:53:00,7.7,1.0,29.99,NE,46,0.0,4.0,73,0.00,,,0.00,weatherlink.com 1.10,2013-01-22 13:53:00,
2013-01-22 05:08:00,7.8,1.0,29.99,ENE,74,2.0,7.0,73,0.00,,,0.00,weatherlink.com 1.10,2013-01-22 14:08:00,
2013-01-22 05:23:00,7.5,1.0,29.98,ENE,69,0.0,6.0,73,0.00,,,0.00,weatherlink.com 1.10,2013-01-22 14:23:00,
2013-01-22 05:38:00,6.5,0.0,29.98,NNW,348,1.0,3.0,75,0.00,,,0.00,weatherlink.com 1.10,2013-01-22 14:38:00,
2013-01-22 05:53:00,5.8,0.0,29.98,ENE,74,2.0,2.0,76,0.00,,,0.00,weatherlink.com 1.10,2013-01-22 14:53:00,
2013-01-22 06:08:00,7.1,0.0,29.98,NE,45,4.0,5.0,73,0.00,,,0.00,weatherlink.com 1.10,2013-01-22 15:08:00,
2013-01-22 06:23:00,7.0,0.0,29.97,NE,43,3.0,6.0,74,0.00,,,0.00,weatherlink.com 1.10,2013-01-22 15:23:00,
2013-01-22 06:38:00,6.2,0.0,29.97,North,6,0.0,3.0,76,0.00,,,0.00,weatherlink.com 1.10,2013-01-22 15:38:00,
2013-01-22 06:53:00,7.1,0.0,29.96,NNW,330,1.0,4.0,74,0.00,,,0.00,weatherlink.com 1.10,2013-01-22 15:53:00,
2013-01-22 07:08:00,7.4,1.0,29.96,NNE,12,1.0,7.0,74,0.00,,,0.00,weatherlink.com 1.10,2013-01-22 16:08:00,
2013-01-22 07:23:00,7.1,0.0,29.96,NE,39,2.0,5.0,74,0.00,,,0.00,weatherlink.com 1.10,2013-01-22 16:23:00,
2013-01-22 07:38:00,7.3,1.0,29.96,NNW,348,0.0,4.0,74,0.00,,,0.00,weatherlink.com 1.10,2013-01-22 16:38:00,
2013-01-22 07:53:00,7.2,1.0,29.95,NE,51,0.0,4.0,74,0.00,,,0.00,weatherlink.com 1.10,2013-01-22 16:53:00,
2013-01-22 08:08:00,7.4,1.0,29.95,NNW,342,0.0,5.0,74,0.00,,,0.00,weatherlink.com 1.10,2013-01-22 17:08:00,
2013-01-22 08:23:00,6.7,0.0,29.95,NNW,337,0.0,2.0,75,0.00,,,0.00,weatherlink.com 1.10,2013-01-22 17:23:00,
2013-01-22 08:38:00,6.5,1.0,29.95,North,6,1.0,3.0,76,0.00,,,0.00,weatherlink.com 1.10,2013-01-22 17:38:00,
2013-01-22 08:53:00,6.1,0.0,29.94,NW,315,1.0,2.0,77,0.00,,,0.00,weatherlink.com 1.10,2013-01-22 17:53:00,
2013-01-22 09:08:00,6.2,0.0,29.94,NE,34,2.0,3.0,76,0.00,,,0.00,weatherlink.com 1.10,2013-01-22 18:08:00,
2013-01-22 09:23:00,6.4,0.0,29.94,ENE,58,0.0,2.0,75,0.00,,,0.00,weatherlink.com 1.10,2013-01-22 18:23:00,
2013-01-22 09:38:00,6.0,0.0,29.94,West,281,0.0,1.0,77,0.00,,,0.00,weatherlink.com 1.10,2013-01-22 18:38:00,
2013-01-22 09:53:00,6.1,1.0,29.93,NW,322,0.0,1.0,78,0.00,,,0.00,weatherlink.com 1.10,2013-01-22 18:53:00,
2013-01-22 10:08:00,6.3,1.0,29.93,NNW,333,0.0,0.0,78,0.00,,,0.00,weatherlink.com 1.10,2013-01-22 19:08:00,
2013-01-22 10:23:00,6.0,1.0,29.93,NNW,333,0.0,0.0,78,0.00,,,0.00,weatherlink.com 1.10,2013-01-22 19:23:00,
2013-01-22 10:38:00,6.5,1.0,29.93,NNE,15,0.0,0.0,78,0.00,,,0.00,weatherlink.com 1.10,2013-01-22 19:38:00,
2013-01-22 10:53:00,7.8,2.0,29.92,NNE,23,0.0,3.0,76,0.00,,,0.00,weatherlink.com 1.10,2013-01-22 19:53:00,
2013-01-22 11:08:00,8.3,2.0,29.91,NW,322,0.0,4.0,75,0.00,,,0.00,weatherlink.com 1.10,2013-01-22 20:08:00,
2013-01-22 11:23:00,9.0,2.0,29.91,North,9,2.0,4.0,74,0.00,,,0.00,weatherlink.com 1.10,2013-01-22 20:23:00,
2013-01-22 11:38:00,9.5,3.0,29.91,NNE,25,0.0,3.0,73,0.00,,,0.00,weatherlink.com 1.10,2013-01-22 20:38:00,
2013-01-22 11:53:00,9.8,3.0,29.91,SE,143,0.0,2.0,75,0.00,,,0.00,weatherlink.com 1.10,2013-01-22 20:53:00,
2013-01-22 12:08:00,10.0,3.0,29.91,SSE,158,0.0,1.0,73,0.00,,,0.00,weatherlink.com 1.10,2013-01-22 21:08:00,
2013-01-22 12:23:00,10.2,3.0,29.90,West,260,0.0,2.0,73,0.00,,,0.00,weatherlink.com 1.10,2013-01-22 21:23:00,
2013-01-22 12:38:00,10.0,3.0,29.90,NNE,33,0.0,1.0,73,0.00,,,0.00,weatherlink.com 1.10,2013-01-22 21:38:00,
2013-01-22 12:54:00,10.3,3.0,29.89,NNE,26,1.0,2.0,72,0.00,,,0.00,weatherlink.com 1.10,2013-01-22 21:54:00,
2013-01-22 13:09:00,10.7,4.0,29.89,East,89,0.0,3.0,73,0.00,,,0.00,weatherlink.com 1.10,2013-01-22 22:09:00,
2013-01-22 13:24:00,10.8,4.0,29.88,NE,44,0.0,2.0,73,0.00,,,0.00,weatherlink.com 1.10,2013-01-22 22:24:00,
2013-01-22 13:39:00,10.8,4.0,29.88,NE,43,1.0,4.0,73,0.00,,,0.00,weatherlink.com 1.10,2013-01-22 22:39:00,
2013-01-22 13:54:00,10.7,4.0,29.87,North,359,0.0,0.0,74,0.00,,,0.00,weatherlink.com 1.10,2013-01-22 22:54:00,
2013-01-22 14:09:00,10.7,4.0,29.87,NW,326,0.0,2.0,73,0.00,,,0.00,weatherlink.com 1.10,2013-01-22 23:09:00,
2013-01-22 14:24:00,10.9,4.0,29.87,ENE,71,2.0,3.0,74,0.00,,,0.00,weatherlink.com 1.10,2013-01-22 23:24:00,
2013-01-22 14:39:00,11.7,4.0,29.86,WNW,302,0.0,5.0,72,0.00,,,0.00,weatherlink.com 1.10,2013-01-22 23:39:00,
2013-01-22 14:54:00,11.2,4.0,29.86,North,356,1.0,6.0,74,0.00,,,0.00,weatherlink.com 1.10,2013-01-22 23:54:00,
2013-01-22 15:09:00,11.7,5.0,29.85,NE,47,1.0,8.0,73,0.00,,,0.00,weatherlink.com 1.10,2013-01-23 00:09:00,
2013-01-22 15:24:00,11.8,4.0,29.84,ENE,60,6.0,9.0,72,0.00,,,0.00,weatherlink.com 1.10,2013-01-23 00:24:00,
2013-01-22 15:39:00,11.8,4.0,29.84,NNE,29,1.0,9.0,71,0.00,,,0.00,weatherlink.com 1.10,2013-01-23 00:39:00,
2013-01-22 15:54:00,11.6,4.0,29.84,NE,44,7.0,10.0,71,0.00,,,0.00,weatherlink.com 1.10,2013-01-23 00:54:00,
2013-01-22 16:09:00,11.2,4.0,29.84,NNE,30,3.0,9.0,71,0.00,,,0.00,weatherlink.com 1.10,2013-01-23 01:09:00,
2013-01-22 16:24:00,11.2,4.0,29.84,ENE,59,2.0,6.0,72,0.00,,,0.00,weatherlink.com 1.10,2013-01-23 01:24:00,
2013-01-22 16:39:00,11.0,4.0,29.84,NE,39,4.0,5.0,73,0.00,,,0.00,weatherlink.com 1.10,2013-01-23 01:39:00,
2013-01-22 16:54:00,11.0,4.0,29.83,North,354,2.0,6.0,73,0.00,,,0.00,weatherlink.com 1.10,2013-01-23 01:54:00,
2013-01-22 17:09:00,10.9,4.0,29.83,NNE,32,0.0,6.0,73,0.00,,,0.00,weatherlink.com 1.10,2013-01-23 02:09:00,
2013-01-22 17:24:00,10.3,4.0,29.83,NNW,337,3.0,6.0,74,0.00,,,0.00,weatherlink.com 1.10,2013-01-23 02:24:00,
2013-01-22 17:39:00,9.7,4.0,29.83,NE,44,1.0,3.0,76,0.00,,,0.00,weatherlink.com 1.10,2013-01-23 02:39:00,
2013-01-22 18:09:00,10.0,3.0,29.83,NNW,333,1.0,8.0,74,0.00,,,0.00,weatherlink.com 1.10,2013-01-23 03:09:00,
2013-01-22 18:28:00,9.6,3.0,29.83,NW,316,1.0,6.0,74,0.00,,,0.00,weatherlink.com 1.10,2013-01-23 03:28:00,
2013-01-22 18:39:00,9.2,3.0,29.82,North,4,1.0,5.0,75,0.00,,,0.00,weatherlink.com 1.10,2013-01-23 03:39:00,
2013-01-22 18:54:00,9.9,3.0,29.82,NE,39,3.0,6.0,74,0.00,,,0.00,weatherlink.com 1.10,2013-01-23 03:54:00,
2013-01-22 19:09:00,10.0,3.0,29.82,ENE,72,1.0,7.0,74,0.00,,,0.00,weatherlink.com 1.10,2013-01-23 04:09:00,
2013-01-22 19:24:00,10.5,3.0,29.82,NE,36,1.0,9.0,72,0.00,,,0.00,weatherlink.com 1.10,2013-01-23 04:24:00,
2013-01-22 19:39:00,9.4,3.0,29.82,NNW,333,2.0,2.0,75,0.00,,,0.00,weatherlink.com 1.10,2013-01-23 04:39:00,
2013-01-22 19:54:00,9.0,3.0,29.82,NNW,346,1.0,4.0,76,0.00,,,0.00,weatherlink.com 1.10,2013-01-23 04:54:00,
2013-01-22 20:09:00,8.5,3.0,29.81,WNW,302,2.0,3.0,77,0.00,,,0.00,weatherlink.com 1.10,2013-01-23 05:09:00,
2013-01-22 20:24:00,8.5,3.0,29.81,WNW,301,1.0,4.0,77,0.00,,,0.00,weatherlink.com 1.10,2013-01-23 05:24:00,
2013-01-22 20:39:00,8.6,3.0,29.81,ENE,66,1.0,4.0,77,0.00,,,0.00,weatherlink.com 1.10,2013-01-23 05:39:00,
2013-01-22 20:54:00,9.8,3.0,29.81,NNW,340,1.0,7.0,74,0.00,,,0.00,weatherlink.com 1.10,2013-01-23 05:54:00,
2013-01-22 21:09:00,9.9,3.0,29.81,NNW,346,0.0,6.0,73,0.00,,,0.00,weatherlink.com 1.10,2013-01-23 06:09:00,
2013-01-22 21:24:00,8.9,3.0,29.80,NNE,29,0.0,4.0,75,0.00,,,0.00,weatherlink.com 1.10,2013-01-23 06:24:00,
2013-01-22 21:39:00,9.4,3.0,29.80,ENE,65,4.0,5.0,74,0.00,,,0.00,weatherlink.com 1.10,2013-01-23 06:39:00,
2013-01-22 21:54:00,9.2,3.0,29.79,NE,41,1.0,6.0,74,0.00,,,0.00,weatherlink.com 1.10,2013-01-23 06:54:00,
2013-01-22 22:09:00,9.7,3.0,29.79,NNE,31,2.0,8.0,74,0.00,,,0.00,weatherlink.com 1.10,2013-01-23 07:09:00,
2013-01-22 22:24:00,9.5,3.0,29.79,NNW,348,1.0,7.0,74,0.00,,,0.00,weatherlink.com 1.10,2013-01-23 07:24:00,
2013-01-22 22:40:00,10.1,3.0,29.79,NE,42,4.0,7.0,72,0.00,,,0.00,weatherlink.com 1.10,2013-01-23 07:40:00,
2013-01-22 22:55:00,9.6,2.0,29.79,NNW,340,3.0,5.0,72,0.00,,,0.00,weatherlink.com 1.10,2013-01-23 07:55:00,
2013-01-22 23:10:00,8.2,2.0,29.79,NNW,346,0.0,2.0,75,0.00,,,0.00,weatherlink.com 1.10,2013-01-23 08:10:00,
2013-01-22 23:25:00,7.8,1.0,29.78,NNW,348,1.0,3.0,75,0.00,,,0.00,weatherlink.com 1.10,2013-01-23 08:25:00,
2013-01-22 23:40:00,7.7,2.0,29.78,NNW,333,1.0,6.0,76,0.00,,,0.00,weatherlink.com 1.10,2013-01-23 08:40:00,
2013-01-22 23:55:00,7.4,1.0,29.78,NNE,19,2.0,3.0,76,0.00,,,0.00,weatherlink.com 1.10,2013-01-23 08:55:00,